Terug naar catalogus

STRIX-5

ActiefWetenschapVLEO
NORAD 65971·PAYLOAD·🇯🇵 Japan

Gelanceerd Oct 14, 2025 vanaf Rocket Lab Launch Complex 1

Loading…

Volgende Passages (komende 24 uur)

TLE

VersSource: Space-Track

Epoch: Sep 14, 2026, 02:45 UTC

1 65971U 25229A   26257.11504667  .00003505  00000-0  25272-3 0  9994
2 65971  41.9274 154.0702 0037449 275.9786  83.6773 15.04974839 50376

Volg STRIX-5 in realtime met AllMySat

Download on the App Store